Location: Liscomb Game Sanctuary
(45.1633°N, 62.5575°W)
Time: 06:14:00
(UTC-03:00)

Daily predictions for brighter satellites

Satellite Brightness Start Highest point End
(mag) Time Altitude Azimuth Time Altitude Azimuth Time Altitude Azimuth
RESURS DK-1 2.5 19:57:24 10° NNW 20:01:33 78° WSW 20:05:40 10° SSE
SL-27 R/B 2.6 19:58:16 10° NNW 20:01:52 82° WSW 20:05:28 10° SSE
In-Cosmos 22 4.2 19:58:07 10° N 20:03:23 56° ENE 20:08:33 10° SSE
Cosmos 1818 3.7 20:02:17 10° NNW 20:07:42 60° NE 20:13:03 10° SE
Cosmos 1844 Rocket 3.4 20:03:35 10° SW 20:09:10 60° WNW 20:14:46 10° NNE
CZ-2D R/B 3.8 20:05:41 10° SE 20:09:18 40° ENE 20:12:58 10° N
Cosmos 1805 3.7 20:10:02 10° SSE 20:13:38 38° E 20:17:18 10° NNE
Cosmos 1269 Rocket 4.5 20:09:31 10° N 20:14:34 43° ENE 20:19:34 10° SE
Cosmos 1378 4.2 20:11:15 10° NNW 20:14:54 50° W 20:18:32 10° S
ALOS 2.4 20:10:50 10° S 20:15:30 80° WSW 20:20:13 10° NNW
Meteor 1-22 Rocket 4.4 20:10:04 10° S 20:15:56 87° E 20:22:02 10° NNE
COSMOS 2487 3.5 20:13:13 10° N 20:16:23 29° ENE 20:19:17 12° ESE
Cosmos 1833 Rocket 3.2 20:13:12 10° NNW 20:18:33 43° ENE 20:23:53 10° SE
Resurs 1-3 3.6 20:14:39 10° SSE 20:18:59 63° ENE 20:23:20 10° N
FENGYUN 3A 3.9 20:16:44 10° S 20:22:08 76° WSW 20:27:34 10° NNW
Cosmos 1437 Rocket 4.0 20:18:20 10° SSW 20:22:14 47° WNW 20:26:13 10° N
Meteor 1-4 Rocket 2.9 20:22:44 10° SSE 20:25:59 38° E 20:29:15 10° NNE
Cosmos 2278 Rocket 2.2 20:20:28 10° SSW 20:26:08 84° ESE 20:31:52 10° NNE
Cosmos 1408 Rocket 4.2 20:22:01 10° N 20:26:10 36° ENE 20:30:18 10° SE
Cosmos 1470 3.9 20:26:31 10° SE 20:29:41 23° E 20:32:52 10° NE
USA 215 4.1 20:25:33 10° ENE 20:30:54 27° SE 20:36:14 10° S
Cosmos 372 Rocket 4.5 20:27:52 10° SSE 20:32:30 36° ESE 20:37:12 10° NE
SJ-6B 4.5 20:29:05 10° SSW 20:32:31 35° W 20:35:59 10° NNW
Cosmos 2098 Rocket 4.5 20:26:28 10° SSE 20:33:36 60° E 20:41:02 10° NNE
Cosmos 1544 3.0 20:30:39 10° S 20:34:15 68° E 20:37:55 10° NNE
Cosmos 1340 Rocket 3.8 20:31:03 10° NNE 20:34:32 27° ENE 20:36:29 19° ESE
Spot 1 4.4 20:30:29 10° SSE 20:35:03 57° ENE 20:39:56 10° N
ATLAS 5 CENTAUR R/B 2.6 20:33:38 10° S 20:37:34 27° ESE 20:41:48 10° ENE
Cosmos 1934 Rocket 4.4 20:32:09 10° SSW 20:38:14 67° W 20:44:18 10° N
Cosmos 158 Rocket 4.1 20:33:18 10° NNW 20:38:20 55° ENE 20:42:53 13° SE
Cosmos 1733 4.2 20:36:07 12° SE 20:39:01 27° E 20:42:21 10° NNE
CZ-4B DEB 3.3 20:39:29 22° SE 20:40:58 37° ENE 20:43:52 10° N
Okean 3 Rocket 3.8 20:37:30 10° NNW 20:41:54 72° W 20:46:17 10° S
Cosmos 2297 3.8 20:36:28 10° S 20:42:00 53° ESE 20:47:35 10° NE
Cosmos 1867 3.7 20:40:07 10° SSW 20:45:23 52° ESE 20:50:42 10° NE
ISS -1.8 20:44:35 10° S 20:45:40 15° SSE 20:45:40 15° SSE
H-2A R/B 3.8 20:44:29 10° S 20:48:15 49° W 20:52:07 10° NNW
Spot 2 Rocket 4.0 20:43:44 10° S 20:48:47 64° WSW 20:53:53 10° NNW
Cosmos 2082 Rocket 2.2 20:48:40 10° NNW 20:54:24 86° ENE 20:59:16 14° SSE
Abrixas 3.7 20:52:11 10° W 20:54:45 30° SSW 20:55:43 24° S
Helios 1B rocket 2.4 20:51:18 10° NNE 20:55:25 62° ESE 20:59:30 10° S
Cosmos 1076 Rocket 3.6 20:51:30 10° NNW 20:55:46 78° W 20:59:59 10° S
Cosmos 1758 3.5 20:53:54 10° SSW 20:57:52 75° W 21:01:53 10° N
Lacrosse 5 2.5 20:54:33 10° WSW 20:59:33 58° NW 21:04:35 10° NE
SL-14 R/B 4.3 20:59:26 10° NNE 21:02:34 26° ENE 21:02:34 26° ENE
USA 267 4.1 21:00:49 17° ENE 21:05:21 40° NNE 21:11:21 10° NW
Cosmos 1953 2.7 21:01:50 10° SSW 21:05:52 66° W 21:09:55 10° N
Envisat 2.9 21:02:47 16° SSE 21:06:49 74° ENE 21:11:54 10° N
SPOT 5 4.2 21:05:48 24° E 21:06:54 26° ENE 21:11:13 10° N
Lacrosse 4 Rocket 4.3 21:04:20 10° W 21:06:56 16° NW 21:09:34 10° N
SWAS 4.4 21:03:08 10° S 21:07:20 56° ESE 21:11:34 10° NE
Cosmos 2016 Rocket 4.3 21:02:35 12° SSE 21:07:55 43° E 21:13:40 10° NNE
GP-B 3.1 21:04:36 10° S 21:09:03 86° W 21:13:31 10° N
USA 186 2.7 21:08:21 23° SW 21:09:11 31° W 21:11:14 10° NNW
ARGOS 4.3 21:10:02 24° ENE 21:10:56 25° ENE 21:15:13 10° N
Helios 1A 3.4 21:06:51 10° S 21:10:58 63° W 21:15:08 10° NNW
Cosmos 1766 Rocket 3.7 21:06:42 10° NNW 21:11:11 76° W 21:15:22 12° S
Cosmos 1939 Rocket 2.8 21:09:38 31° SSE 21:11:30 69° ENE 21:15:39 10° N
H-2A R/B 3.8 21:12:13 17° ENE 21:12:33 17° ENE 21:15:52 10° NNE
Resurs 01 Rocket 3.5 21:11:06 10° SSW 21:14:58 29° W 21:18:52 10° NW
Cosmos 1271 Rocket 2.7 21:11:07 10° S 21:15:07 74° E 21:19:10 10° NNE
CZ-3 Stage 3 4.2 20:41:37 10° WSW 21:15:25 41° SSW 21:20:18 23° SE
Cosmos 1125 Rocket 3.7 21:11:09 10° SSW 21:16:19 71° WNW 21:21:34 10° NNE
Cosmos 1048 Rocket 4.5 21:12:45 10° NNW 21:17:47 58° WSW 21:22:08 14° S
Geosat 4.1 21:13:09 10° NNE 21:18:12 77° WNW 21:23:12 10° SW
Cosmos 1184 Rocket 3.3 21:18:58 10° N 21:21:45 46° NE 21:21:45 46° NE
Cosmos 2100 Rocket 3.9 21:17:27 10° S 21:23:47 85° E 21:30:12 10° N
Cosmos-2242 3.0 21:19:36 10° S 21:23:51 80° W 21:28:08 10° N
ERS-1 Rocket 3.0 21:23:22 40° SE 21:25:00 60° ENE 21:29:59 10° N
Terra 4.1 21:25:53 11° NE 21:25:53 11° NE 21:26:38 10° NE
Lacrosse 5 rocket 0.9 21:22:22 10° NW 21:26:19 90° SSW 21:26:41 72° SE
Fregat R/B Cluster 11 4.4 21:23:53 10° SW 21:29:01 64° NW 21:32:21 10° NNE
Cosmos 1674 3.8 21:25:41 10° NNW 21:29:17 43° W 21:31:54 17° SSW
SJ-11-01 4.5 21:27:38 24° S 21:30:30 72° WSW 21:35:15 10° NNW
Tsikada Rocket 4.2 21:25:06 10° N 21:31:05 48° ENE 21:32:36 40° ESE
YAOGAN 6 2.7 21:36:25 65° NNE 21:36:25 65° NNE 21:39:47 10° N
Cosmos 1743 Rocket 3.7 21:38:15 10° NNW 21:42:41 74° W 21:43:51 48° SSW
Meteor 1-29 4.5 21:41:13 10° N 21:44:27 37° WNW 21:47:41 10° SW
Cosmos 1500 Rocket 3.3 21:40:08 10° N 21:44:29 85° E 21:44:37 83° SE
H-2A R/B 4.2 21:46:29 15° NNE 21:46:29 15° NNE 21:47:37 10° NNE
Cosmos 1802 Rocket 3.9 21:38:50 10° S 21:44:58 85° WNW 21:51:11 10° N
BREEZE-M DEB (TANK) 3.7 21:43:16 10° WNW 21:44:40 35° NW 21:44:40 35° NW
Cosmos 1356 Rocket 3.4 21:44:06 10° N 21:47:56 76° N 21:47:56 76° N
Cosmos 2369 Rocket 4.4 21:53:11 11° NE 21:53:11 11° NE 21:53:23 10° NE
CZ-3B DEB 3.4 21:42:19 10° W 21:50:04 39° NNW 21:52:52 19° NNE
Cosmos 2251 Rocket 3.4 21:47:29 10° NNW 21:52:50 89° ENE 21:53:40 65° SSE
SPOT 1/Viking Rocket 4.1 21:56:26 43° NE 21:56:26 43° NE 22:00:53 10° N
Cosmos 2061 Rocket 4.4 21:52:13 10° SSW 21:58:33 64° WNW 22:04:58 10° N
Cosmos 1626 4.3 21:58:20 10° N 21:59:34 19° NNE 21:59:34 19° NNE
Cosmos 1833 Rocket 4.2 21:57:25 10° NW 22:02:19 31° WSW 22:05:39 17° SSW
MetOp-B 4.0 22:03:35 77° SSE 22:04:00 86° ENE 22:09:23 10° NNW
Cosmos 1816 Rocket 4.3 21:59:04 10° N 22:05:16 72° E 22:05:52 67° ESE
NOAA 11 4.0 22:07:15 76° SSE 22:07:42 89° ENE 22:13:14 10° NNW
USA 215 3.1 22:07:53 10° NE 22:14:27 89° SE 22:21:00 10° SW
Cosmos 1842 Rocket 4.4 22:18:20 47° W 22:18:30 47° WNW 22:22:46 10° N
MOS 1-B Rocket 4.5 22:17:32 59° ESE 22:18:48 68° ENE 22:25:41 10° N
Cosmos 2058 4.1 22:14:50 10° NNW 22:17:39 40° NNW 22:17:39 40° NNW
ATLAS 5 CENTAUR R/B 2.8 22:17:21 10° WSW 22:21:57 46° NW 22:27:01 10° NNE
Cosmos 2233 Rocket 4.0 22:23:21 62° NE 22:23:21 62° NE 22:28:40 10° NNE
Cosmos 2151 4.1 22:19:58 10° NNW 22:23:14 41° WNW 22:23:14 41° WNW
USA 245 4.2 22:24:27 82° WSW 22:24:32 82° WSW 22:30:49 10° NNW
Lacrosse 5 3.9 22:39:19 10° WNW 22:43:26 24° NNW 22:45:24 19° NNE
SPOT 5 3.8 22:45:02 49° W 22:45:02 49° W 22:49:50 10° NNW
USA 267 3.1 22:48:09 84° NNW 22:48:09 84° NNW 22:54:32 10° NW
ARGOS 3.9 22:51:33 47° WNW 22:51:33 47° WNW 22:56:06 10° NNW
H-2A R/B 2.9 22:52:51 49° NNW 22:52:51 49° NNW 22:56:41 10° NNW
Terra 3.7 23:04:46 27° N 23:04:46 27° N 23:06:54 10° NNW
Cosmos 2369 Rocket 3.9 23:34:54 28° N 23:34:54 28° N 23:37:46 10° NNE
Cosmos 2227 Rocket 4.3 23:41:08 10° N 23:43:38 20° NNE 23:43:38 20° NNE
